Weather History for Fullerton, CA

Change the Weather History Date:

Wednesday, February 27, 2013

  Actual Average Record
Temperature  
Mean Temperature 64 °F 59 °F  
Max Temperature 80 °F 69 °F 86 °F (2008)
Min Temperature 47 °F 49 °F 35 °F (2011)
Degree Days  
Heating Degree Days 1 6  
Month to date heating degree days 183 198  
Since 1 July heating degree days 671 915  
Cooling Degree Days 0 0  
Month to date cooling degree days 10 0  
Year to date cooling degree days 12 4  
Growing Degree Days 14 (Base 50)    
Moisture  
Dew Point 23 °F    
Average Humidity 36    
Maximum Humidity 64    
Minimum Humidity 8    
Precipitation  
Precipitation 0.00 in 0.09 in 1.12 in (2010)
Month to date precipitation 0.45 3.16  
Year to date precipitation 1.40 6.19  
Since 1 July precipitation 4.71 10.42  
Snow  
Snow 0.00 in - - ()
Month to date snowfall 0.0  
Year to date snowfall 0.0  
Since 1 July snowfall 0.0  
Snow Depth 0.00 in    
Sea Level Pressure  
Sea Level Pressure 30.18 in    
Wind  
Wind Speed 2 mph (NE)    
Max Wind Speed 10 mph    
Max Gust Speed 16 mph    
Visibility 10 miles    
Events      
T = Trace of Precipitation, MM = Missing Value Source: NWS Daily Summary

Daily Weather History Graph

Daily Weather History Graph

Search for Another Location

Airport:

Trip Planner

Search our weather history database for the weather conditions in past years. The results will help you decide how hot, cold, wet, or windy it might be!

Date:

Astronomy

Feb. 27, 2013 Rise Set
Actual Time 6:22 AM PST 5:47 PM PST
Civil Twilight 5:57 AM PST 6:12 PM PST
Nautical Twilight 5:28 AM PST 6:41 PM PST
Astronomical Twilight 4:59 AM PST 7:10 PM PST
Moon 8:03 PM PST 7:08 AM PST
Length of Visible Light 12h 14m
Length of Day
11h 24m
Waning Gibbous, 96% of the Moon is Illuminated
Feb 27
Waning Gibbous
Mar 4
Last Quarter
Mar 11
New
Mar 19
First Quarter
Mar 27
Full

Hourly Weather History & Observations

Time (PST) Temp. Dew Point Humidity Pressure Visibility Wind Dir Wind Speed Gust Speed Precip Events Conditions
12:53 AM 50.0 °F 37.9 °F 63% 30.12 in 10.0 mi Calm Calm - N/A   Clear
1:53 AM 55.0 °F 23.0 °F 29% 30.12 in 10.0 mi East 5.8 mph - N/A   Clear
2:53 AM 51.1 °F 27.0 °F 39% 30.13 in 10.0 mi Calm Calm - N/A   Clear
3:53 AM 50.0 °F 26.1 °F 39% 30.14 in 10.0 mi Calm Calm - N/A   Clear
4:53 AM 48.0 °F 26.1 °F 42% 30.15 in 10.0 mi Calm Calm - N/A   Clear
5:53 AM 48.0 °F 27.0 °F 44% 30.15 in 10.0 mi Calm Calm - N/A   Clear
7:53 AM 57.9 °F 28.9 °F 33% 30.20 in 10.0 mi WNW 3.5 mph - N/A   Clear
8:53 AM 66.9 °F 28.9 °F 24% 30.21 in 10.0 mi Calm Calm - N/A   Clear
9:53 AM 73.0 °F 15.1 °F 11% 30.21 in 10.0 mi East 9.2 mph - N/A   Clear
10:53 AM 75.0 °F 14.0 °F 10% 30.21 in 10.0 mi East 9.2 mph - N/A   Clear
11:53 AM 75.9 °F 12.0 °F 9% 30.20 in 10.0 mi Calm Calm - N/A   Clear
12:53 PM 77.0 °F 12.0 °F 8% 30.18 in 10.0 mi Calm Calm - N/A   Clear
1:53 PM 79.0 °F 12.9 °F 8% 30.16 in 10.0 mi Variable 6.9 mph - N/A   Clear
2:53 PM 79.0 °F 14.0 °F 9% 30.15 in 10.0 mi Calm Calm - N/A   Clear
3:53 PM 78.1 °F 16.0 °F 10% 30.15 in 10.0 mi Variable 5.8 mph - N/A   Clear
4:53 PM 73.9 °F 16.0 °F 11% 30.17 in 10.0 mi WNW 9.2 mph - N/A   Clear
5:53 PM 69.1 °F 19.9 °F 15% 30.18 in 10.0 mi WNW 4.6 mph - N/A   Clear
6:53 PM 64.9 °F 24.1 °F 21% 30.20 in 10.0 mi Calm Calm - N/A   Clear
7:53 PM 63.0 °F 26.1 °F 25% 30.21 in 10.0 mi Calm Calm - N/A   Clear
8:53 PM 59.0 °F 28.9 °F 32% 30.23 in 10.0 mi Calm Calm - N/A   Clear
9:53 PM 55.9 °F 30.9 °F 39% 30.25 in 10.0 mi Calm Calm - N/A   Clear
11:53 PM 52.0 °F 32.0 °F 47% 30.26 in 10.0 mi ENE 3.5 mph - N/A   Clear